Regional Weather Roundup
Issued by NWS

Home | Current Version | Previous Version | Graphics & Text | Print | Product List | Glossary On
Versions: 1 2 3 4 5 6 7 8 9 10 11 12 13 14 15 16 17 18 19 20 21 22 23 24 25 26 27 28 29 30 31 32 33 34 35 36 37 38 39 40 41 42 43 44 45 46 47 48 49 50
000
ASUS43 KFSD 022210
RWRSD

WEATHER ROUNDUP FOR SOUTH DAKOTA
NATIONAL WEATHER SERVICE SIOUX FALLS SD
500 PM CDT THU JUL 02 2015

NOTE: "FAIR" INDICATES FEW OR NO CLOUDS BELOW 12,000 FEET WITH NO
SIGNIFICANT WEATHER AND/OR OBSTRUCTIONS TO VISIBILITY.


SDZ001>005-009-010-012>017-022300-
NORTHWEST AND NORTH CENTRAL SOUTH DAKOTA

CITY           SKY/WX    TMP DP  RH WIND       PRES   REMARKS
BUFFALO          N/A     80  56  43 N17       30.00F
FAITH            N/A     79  58  48 N10       30.02S
MOBRIDGE       MOSUNNY   79  67  66 NW8       29.95S HAZE
$$

SDZ012>016-024>037-041>051-057-063-072>074-022300-
SOUTHWEST AND SOUTH CENTRAL SOUTH DAKOTA

CITY           SKY/WX    TMP DP  RH WIND       PRES   REMARKS
RAPID CTY ARPT MOSUNNY   80  58  46 NW20G28   30.07S
PIERRE         PTSUNNY   78  64  61 VRB3      29.96S
CUSTER         MOSUNNY   75  47  36 NW9G18    30.19F
ELLSWORTH AFB  MOSUNNY   78  56  47 N17G25    30.06S
PHILIP         PTSUNNY   82  59  45 N14       30.00S
PINE RIDGE     SUNNY     79  56  45 N13       30.07S
SPEARFISH      FAIR      75  57  53 NW12G20   30.14F
WINNER         FAIR      80  59  48 N15G22    29.98F
$$

SDZ004>011-016>023-039-040-022300-
NORTHEAST SOUTH DAKOTA

CITY           SKY/WX    TMP DP  RH WIND       PRES   REMARKS
ABERDEEN       SUNNY     73  64  73 S8        29.98R
WATERTOWN      PTSUNNY   74  46  36 VRB5      29.99F
BROOKINGS      CLOUDY    72  48  43 SE8       30.02S
SISSETON         N/A     75  54  47 SW8       29.97S
$$

SDZ017-020-022-023-036>040-048>070-022300-
SOUTHEAST SOUTH DAKOTA

CITY           SKY/WX    TMP DP  RH WIND       PRES   REMARKS
SIOUX FALLS    LGT RAIN  69  58  67 CALM      30.00S
HURON          CLOUDY    72  59  63 SE6       29.97F
CHAMBERLAIN    PTSUNNY   73  65  75 E3        29.98S
MITCHELL       CLOUDY    68  61  78 E13       29.99S
YANKTON        CLOUDY    66  61  82 E7        29.97S
$$

ABBREVIATIONS USED IN REMARKS
   TC - TEMPERATURE IN CELSIUS
  WCI - WIND CHILL INDEX
   HX - HEAT INDEX
  VSB - VISIBILITY



USA.gov is the U.S. government's official web portal to all federal, state and local government web resources and services.